Fort Lewis, WA

6:56 PM PDT on July 24, 2017 (GMT -0700)
Gray Army Air Field

Weather History for KGRF - May, 2013

Change the Weather History Date:

Sunday, May 12, 2013

  Actual Average Record
Temperature  
Mean Temperature 63 °F -  
Max Temperature 70 °F 61 °F 82 °F (1997)
Min Temperature 57 °F 42 °F 35 °F (2006)
Degree Days  
Heating Degree Days 2    
Growing Degree Days 13 (Base 50)    
Moisture  
Dew Point 56 °F    
Average Humidity 85    
Maximum Humidity 96    
Minimum Humidity 62    
Precipitation  
Precipitation 0.06 in - - ()
Sea Level Pressure  
Sea Level Pressure 30.07 in    
Wind  
Wind Speed 6 mph (SW)    
Max Wind Speed 12 mph    
Max Gust Speed -    
Visibility 9 miles    
Events Rain    
Averages and records for this station are not official NWS values.
T = Trace of Precipitation, MM = Missing Value Source: NWS Daily Summary

Daily Weather History Graph

Daily Weather History Graph

Search for Another Location

Airport or City:

Trip Planner

Search our weather history database for the weather conditions in past years. The results will help you decide how hot, cold, wet, or windy it might be!

Date:

Astronomy

May. 12, 2013 Rise Set
Actual Time 5:38 AM PDT 8:36 PM PDT
Civil Twilight 5:02 AM PDT 9:11 PM PDT
Nautical Twilight 4:16 AM PDT 9:58 PM PDT
Astronomical Twilight 3:21 AM PDT 10:53 PM PDT
Moon 7:35 AM PDT (5/12) 11:08 PM PDT (5/12)
Length of Visible Light 16h 09m
Length of Day
14h 58m
Waxing Crescent, 7% of the Moon is Illuminated
May 12
Waxing Crescent
May 17
First Quarter
May 24
Full
May 31
Last Quarter
Jun 8
New

Hourly Weather History & Observations

Time (PDT) Temp. Dew Point Humidity Pressure Visibility Wind Dir Wind Speed Gust Speed Precip Events Conditions
12:58 AM 63.0 °F 56.5 °F 79% 30.07 in 10.0 mi SW 5.8 mph - N/A   Mostly Cloudy
1:58 AM 61.0 °F 55.9 °F 83% 30.07 in 10.0 mi South 3.5 mph - N/A   Mostly Cloudy
2:58 AM 61.5 °F 56.1 °F 82% 30.07 in 10.0 mi SE 4.6 mph - N/A   Overcast
3:58 AM 61.7 °F 55.9 °F 81% 30.08 in 10.0 mi SW 4.6 mph - N/A   Overcast
4:46 AM 60.8 °F 55.4 °F 82% 30.07 in 7.0 mi SSW 5.8 mph - N/A   Light Drizzle
4:58 AM 59.9 °F 55.8 °F 86% 30.08 in 3.0 mi SW 4.6 mph - 0.02 in   Light Drizzle
5:06 AM 59.0 °F 55.4 °F 88% 30.07 in 8.0 mi South 5.8 mph - N/A   Overcast
5:58 AM 59.0 °F 56.3 °F 91% 30.09 in 10.0 mi South 2.3 mph - 0.00 in   Overcast
6:58 AM 59.5 °F 56.8 °F 91% 30.07 in 10.0 mi ESE 3.5 mph - N/A   Mostly Cloudy
7:58 AM 60.6 °F 58.6 °F 93% 30.10 in 10.0 mi SSE 3.5 mph - N/A   Mostly Cloudy
8:18 AM 60.8 °F 59.0 °F 94% 30.09 in 10.0 mi West 11.5 mph - N/A   Mostly Cloudy
8:23 AM 60.8 °F 57.2 °F 88% 30.09 in 10.0 mi West 9.2 mph - N/A   Overcast
8:28 AM 59.0 °F 57.2 °F 94% 30.10 in 10.0 mi West 6.9 mph - N/A   Overcast
8:38 AM 59.0 °F 57.2 °F 94% 30.10 in 10.0 mi West 8.1 mph - N/A   Overcast
8:58 AM 59.5 °F 56.3 °F 89% 30.12 in 10.0 mi West 5.8 mph - N/A   Overcast
9:03 AM 59.0 °F 55.4 °F 88% 30.11 in 10.0 mi West 4.6 mph - N/A   Overcast
9:58 AM 62.2 °F 56.3 °F 81% 30.11 in 10.0 mi SE 4.6 mph - N/A   Scattered Clouds
10:58 AM 65.7 °F 55.9 °F 71% 30.10 in 10.0 mi SSE 8.1 mph - N/A   Mostly Cloudy
11:58 AM 66.9 °F 55.8 °F 67% 30.11 in 10.0 mi SSW 5.8 mph - N/A   Overcast
12:18 PM 66.2 °F 55.4 °F 68% 30.10 in 10.0 mi West 9.2 mph - N/A   Overcast
12:33 PM 64.4 °F 55.4 °F 73% 30.10 in 10.0 mi West 6.9 mph - N/A   Mostly Cloudy
12:58 PM 65.1 °F 56.3 °F 73% 30.11 in 10.0 mi West 5.8 mph - N/A   Mostly Cloudy
1:58 PM 67.6 °F 56.3 °F 67% 30.10 in 10.0 mi WNW 2.3 mph - N/A   Overcast
2:58 PM 69.1 °F 55.8 °F 62% 30.09 in 10.0 mi West 6.9 mph - N/A   Mostly Cloudy
3:58 PM 68.2 °F 55.8 °F 64% 30.07 in 10.0 mi West 10.4 mph - N/A   Overcast
4:58 PM 66.0 °F 55.4 °F 69% 30.07 in 10.0 mi West 10.4 mph - N/A   Mostly Cloudy
5:58 PM 64.8 °F 55.6 °F 72% 30.06 in 10.0 mi West 9.2 mph - N/A   Overcast
6:58 PM 63.9 °F 55.4 °F 74% 30.05 in 10.0 mi West 5.8 mph - N/A   Mostly Cloudy
7:40 PM 62.6 °F 55.4 °F 77% 30.04 in 10.0 mi WNW 8.1 mph - N/A   Light Drizzle
7:49 PM 60.8 °F 57.2 °F 88% 30.04 in 9.0 mi WSW 5.8 mph - N/A   Overcast
7:50 PM 60.8 °F 57.2 °F 88% 30.04 in 7.0 mi West 5.8 mph - N/A   Overcast
7:51 PM 60.8 °F 57.2 °F 88% 30.04 in 6.0 mi West 6.9 mph - N/A Rain Light Rain
7:58 PM 60.6 °F 57.0 °F 88% 30.05 in 4.0 mi West 3.5 mph - 0.01 in   Light Drizzle
8:03 PM 60.8 °F 57.2 °F 88% 30.04 in 4.0 mi West 4.6 mph - N/A   Light Drizzle
8:24 PM 59.0 °F 57.2 °F 94% 30.04 in 10.0 mi West 6.9 mph - N/A   Overcast
8:39 PM 59.0 °F 57.2 °F 94% 30.04 in 10.0 mi West 4.6 mph - N/A   Overcast
8:58 PM 59.2 °F 57.4 °F 94% 30.05 in 10.0 mi WSW 5.8 mph - 0.01 in   Overcast
9:18 PM 59.0 °F 57.2 °F 94% 30.05 in 10.0 mi SW 3.5 mph - N/A   Overcast
9:58 PM 59.2 °F 56.1 °F 90% 30.08 in 10.0 mi SSW 4.6 mph - N/A   Overcast
10:07 PM 59.0 °F 55.4 °F 88% 30.07 in 9.0 mi South 6.9 mph - N/A   Light Drizzle
10:17 PM 59.0 °F 55.4 °F 88% 30.06 in 8.0 mi SSW 8.1 mph - N/A   Overcast
10:22 PM 59.0 °F 55.4 °F 88% 30.06 in 8.0 mi South 4.6 mph - N/A   Overcast
10:42 PM 57.2 °F 55.4 °F 94% 30.06 in 10.0 mi SSW 8.1 mph - N/A   Overcast
10:58 PM 57.6 °F 55.9 °F 94% 30.07 in 10.0 mi South 5.8 mph - 0.00 in   Overcast
11:09 PM 57.2 °F 55.4 °F 94% 30.06 in 10.0 mi SSW 5.8 mph - N/A   Light Drizzle
11:29 PM 57.2 °F 55.4 °F 94% 30.06 in 7.0 mi South 5.8 mph - N/A   Light Drizzle
11:33 PM 57.2 °F 55.4 °F 94% 30.06 in 9.0 mi South 5.8 mph - N/A   Overcast
11:58 PM 57.0 °F 55.9 °F 96% 30.07 in 9.0 mi SSW 4.6 mph - 0.02 in   Overcast
11:59 PM 57.2 °F 55.4 °F 94% 30.06 in 9.0 mi South 4.6 mph - N/A   Light Drizzle